User: anonymous   Login
Location: Saint Peter Port
(49.4500°N, 2.5330°W)
Time: 21:27:34
(UTC+00:00)
Language:

Cosmos 2242 Rocket - Orbit

View from above orbital plane
View from above orbital plane
View from above satellite
View from above satellite

Ground track
Ground track

The orbit data is extracted from the following two-line orbital elements,

1 22627U 93024B   17350.91354135 +.00000023 +00000-0 -68905-8 0  9996
2 22627 082.5228 290.4338 0025097 093.1543 267.2541 14.78102556329140
Epoch (UTC): 16 December 2017 21:55:29
Eccentricity: 0.0025097
inclination: 82.5228°
perigee height: 618 km
apogee height: 653 km
right ascension of ascending node: 290.4338°
argument of perigee: 93.1543°
revolutions per day: 14.78102556
mean anomaly at epoch: 267.2541°
orbit number at epoch: 32914

The dashed part of the orbit path shows where the satellite is in the earth's shadow,  

DLR